Weather Roundup
Issued by NWS

Home | Current Version | Previous Version | Text Only | Print | Product List | Glossary On
Versions: 1 2 3 4 5 6 7 8 9 10 11 12 13 14 15 16 17 18 19 20 21 22 23 24 25 26 27 28 29 30 31 32 33 34 35 36 37 38 39 40 41 42 43 44 45 46 47 48 49 50
819
NZUS93 KARX 112110
HRRWXR

CURRENT HOURLY OBSERVATIONS ACROSS
MUCH OF THE UPPER MISSISSIPPI VALLEY
NATIONAL WEATHER SERVICE LA CROSSE WI
300 PM CST THU FEB 11 2016


...SOUTHEAST MINNESOTA...


CITY           SKY/WX    TMP DP  RH WIND       PRES   REMARKS
ROCHESTER      CLOUDY    11   0  61 S12       30.22F WCI  -3
ROCHESTER/MAYO CLOUDY    15  -1  48 S6        30.23F WCI   6
WINONA         CLOUDY    19   1  45 W6        30.28S WCI  11
AUSTIN         SUNNY     12   1  62 S8        30.23F WCI   1
ALBERT LEA     SUNNY     14   1  57 SW6       30.23S WCI   5
DODGE CENTER   CLOUDY    16   1  53 SW10      30.21F WCI   3
PRESTON        CLOUDY    14  -1  50 S8        30.23F WCI   3
OWATONNA       PTSUNNY   16   3  57 SW9       30.22F WCI   4
FARIBAULT      CLOUDY    18   3  53 S9        30.23F WCI   6
$$

...ELSEWHERE IN MINNESOTA...


CITY           SKY/WX    TMP DP  RH WIND       PRES   REMARKS
MINNEAPOLIS    CLOUDY    17  -3  41 SW7       30.23F WCI   8
INTNL FALLS    PTSUNNY   12  -6  44 W9        30.12F WCI   0
DULUTH         PTSUNNY   12  -5  46 W12       30.12F WCI  -2
RED WING       CLOUDY    18   0  45 W7        30.25F WCI   8
REDWOOD FALLS  CLOUDY    15   5  64 S7        30.22F WCI   5
MANKATO        CLOUDY    16   1  53 S8        30.23F WCI   5
WORTHINGTON    CLOUDY    14   9  79 S9        30.17F WCI   2
FAIRMONT       CLOUDY    12   1  62 SW9       30.22S WCI   0
$$

...SOUTHWEST WISCONSIN...


CITY           SKY/WX    TMP DP  RH WIND       PRES   REMARKS
LA CROSSE      MOSUNNY   19  -2  39 SW8       30.26F WCI   9
PRAIRIE DU CHI SUNNY     18  -4  39 CALM      30.29F
BOSCOBEL       MOSUNNY   20  -1  40 SW7       30.28F WCI  11
LONE ROCK      SUNNY     19  -2  39 W6        30.27F WCI  11
PLATTEVILLE    SUNNY     17   2  53 CALM      30.26F
FORT MC COY    SUNNY     19  -4  37 W6        30.25F WCI  10
CAMP DOUGLAS   MOSUNNY   18  -6  35 W8        30.22F WCI   7
VIROQUA        MOCLDY    18  -1  43 W7        30.21F WCI   8
WIS DELLS      SUNNY     17  -3  40 SW7       30.23F WCI   7
$$

...ELSEWHERE IN WISCONSIN...


CITY           SKY/WX    TMP DP  RH WIND       PRES   REMARKS
MILWAUKEE      MOSUNNY   19  -1  41 W8        30.26F WCI   9
MADISON        MOSUNNY   18  -3  39 VRB5      30.25F WCI  11
GREEN BAY      SUNNY     17   2  51 W10       30.21F WCI   5
EAU CLAIRE     PTSUNNY   14  -4  44 W7        30.23F WCI   4
BLACK RVR FLS  CLOUDY    19  -6  31 SW8       30.24F WCI   9
MEDFORD        PTSUNNY   11  -2  53 SW6       30.15F WCI   2
WAUSAU         SUNNY     14  -3  47 W8        30.17F WCI   3
WIS RAPIDS     SUNNY     16  -5  39 W8        30.22F WCI   5
MARSHFIELD     SUNNY     14  -4  44 W7        30.18F WCI   4
RICE LAKE      CLOUDY    14  -4  44 SW3       30.21F
$$

...NORTHEAST IOWA...


CITY           SKY/WX    TMP DP  RH WIND       PRES   REMARKS
WATERLOO       CLOUDY    15   3  59 S6        30.27F WCI   6
DUBUQUE        SUNNY     17   2  51 SW5       30.26F WCI  10
DECORAH        SUNNY     16  -2  45 VRB7      30.24S WCI   6
MASON CITY     PTSUNNY   12   3  67 S8        30.24F WCI   0
CHARLES CITY   PTSUNNY   12   0  57 S7        30.25F WCI   2
OELWEIN        SUNNY     14   0  52 S6        30.26F WCI   5
$$

...ELSEWHERE IN IOWA...


CITY           SKY/WX    TMP DP  RH WIND       PRES   REMARKS
DES MOINES     CLOUDY    20   4  50 S7        30.25F WCI  11
IOWA CITY      MOSUNNY   22   4  46 CALM      30.30F
FORT DODGE     CLOUDY    14   1  57 S6        30.25S WCI   5
MARSHALLTOWN   CLOUDY    16   4  59 SE7       30.24F WCI   6
CEDAR RAPIDS   SUNNY     21   6  52 SE5       30.26F WCI  15
$$

...NORTHERN ILLINOIS...


CITY           SKY/WX    TMP DP  RH WIND       PRES   REMARKS
CHICAGO-OHARE  MOSUNNY   21   2  43 W7        30.27F WCI  12
CHICAGO-MIDWAY MOSUNNY   23  -1  35 VRB3      30.29S
MOLINE         SUNNY     24   1  36 W5        30.30F WCI  18
ROCKFORD       MOSUNNY   21   3  45 NW6       30.30F WCI  13
PEORIA         SUNNY     27   2  34 VRB3      30.31S
$$

NOTE: "FAIR" INDICATES FEW OR NO CLOUDS BELOW 12,000 FEET WITH NO
SIGNIFICANT WEATHER AND/OR OBSTRUCTIONS TO VISIBILITY. WIND
SPEEDS ARE IN MILES-PER-HOUR.




USA.gov is the U.S. government's official web portal to all federal, state and local government web resources and services.